Location: Newark
(45.0242°N, 16.0939°E)
Time: 01:20:16
(UTC+00:00)

Envisat - Pass Details

Date: 25 September 2019
Orbit: 764 x 766 km, 98.1° (Epoch: 16 October)

Event Time Altitude Azimuth Distance (km) Brightness Sun altitude
Rises 17:56:57 0° 196° (SSW) 3,219 6.3 -12.9°
Reaches altitude 10° 17:59:34 10° 209° (SSW) 2,298 5.7 -13.3°
Maximum altitude 18:03:50 27° 266° (W) 1,449 5.3 -14.1°
Drops below altitude 10° 18:08:07 10° 324° (NW) 2,312 6.2 -14.8°
Sets 18:10:47 0° 336° (NNW) 3,243 6.8 -15.3°
